ROMMA est une association bénévole à but non lucratif. Votre soutien est indispensable : ADHERER à ROMMA ou FAIRE un DON

Le Versoud - (38, Isère)

Vallée du Grésivaudan (220 m)   Longitude: 05° 51' 44" E   Latitude: 45° 13' 06" N Station partenaire n°6
 

Détail journalier du     <<     >>

Température Humidité Pression Vent Dir Rafale Dir. rafale Ensol.
Heure (°C) (%) (hPa) (km/h) (km/h) (min)
01:00 25.777101402NNE0
02:00 25.276101402N0
03:00 24.380101400---0
04:00 23.878101400---0
05:00 22.585101400---0
06:00 21.788101500---0
07:00 21.787101500---0
08:00 24.673101500---60
09:00 26.265101500---60
10:00 27.656101503N60
11:00 29.151101503NNE60
12:00 30.252101405NNE60
13:00 32.348101403N40
14:00 32.452101303N0
15:00 33.649101305NNO40
16:00 34.446101305N60
17:00 35.442101205N60
18:00 35.74210131N6N60
19:00 36.24310121N6N60
20:00 32.458101303N5
21:00 31.664101302NNO55
22:00 29.761101408NNE0
23:00 28.171101408NNE0
minuit 26.969101400---0

Graphique du 29-06-2019

 

Serveur OMMA